Year,Month,Day,Hour,Minute,Value (Times are PST for temperature in C)
2010,10,19,00,00,6.90
2010,10,19,00,01,6.90
2010,10,19,00,02,6.90
2010,10,19,00,03,6.90
2010,10,19,00,04,6.90
2010,10,19,00,05,6.90
2010,10,19,00,06,6.80
2010,10,19,00,07,6.80
2010,10,19,00,08,6.80
2010,10,19,00,09,6.80
2010,10,19,00,10,6.80
2010,10,19,00,11,6.80
2010,10,19,00,12,6.80
2010,10,19,00,13,6.80
2010,10,19,00,14,6.80
2010,10,19,00,15,6.80
2010,10,19,00,16,6.80
2010,10,19,00,17,6.80
2010,10,19,00,18,6.80
2010,10,19,00,19,6.80
2010,10,19,00,20,6.80
2010,10,19,00,21,6.80
2010,10,19,00,22,6.80
2010,10,19,00,23,6.80
2010,10,19,00,24,6.80
2010,10,19,00,25,6.80
2010,10,19,00,26,6.80
2010,10,19,00,27,6.80
2010,10,19,00,28,6.80
2010,10,19,00,29,6.80
2010,10,19,00,30,6.80
2010,10,19,00,31,6.80
2010,10,19,00,32,6.80
2010,10,19,00,33,6.80
2010,10,19,00,34,6.80
2010,10,19,00,35,6.70
2010,10,19,00,36,6.70
2010,10,19,00,37,6.70
2010,10,19,00,38,6.60
2010,10,19,00,39,6.60
2010,10,19,00,40,6.60
2010,10,19,00,41,6.60
2010,10,19,00,42,6.60
2010,10,19,00,43,6.60
2010,10,19,00,44,6.60
2010,10,19,00,45,6.60
2010,10,19,00,46,6.60
2010,10,19,00,47,6.60
2010,10,19,00,48,6.60
2010,10,19,00,49,6.60
2010,10,19,00,50,6.60
2010,10,19,00,51,6.60
2010,10,19,00,52,6.60
2010,10,19,00,53,6.60
2010,10,19,00,54,6.60
2010,10,19,00,55,6.60
2010,10,19,00,56,6.60
2010,10,19,00,57,6.60
2010,10,19,00,58,6.60
2010,10,19,00,59,6.60
2010,10,19,01,00,6.70
2010,10,19,01,01,6.70
2010,10,19,01,02,6.70
2010,10,19,01,03,6.80
2010,10,19,01,04,6.80
2010,10,19,01,05,6.80
2010,10,19,01,06,6.80
2010,10,19,01,07,6.80
2010,10,19,01,08,6.80
2010,10,19,01,09,6.80
2010,10,19,01,10,6.80
2010,10,19,01,11,6.80
2010,10,19,01,12,6.80
2010,10,19,01,13,6.80
2010,10,19,01,14,6.80
2010,10,19,01,15,6.80
2010,10,19,01,16,6.80
2010,10,19,01,17,6.80
2010,10,19,01,18,6.80
2010,10,19,01,19,6.90
2010,10,19,01,20,6.90
2010,10,19,01,21,6.90
2010,10,19,01,22,6.90
2010,10,19,01,23,7.00
2010,10,19,01,24,7.00
2010,10,19,01,25,7.00
2010,10,19,01,26,7.00
2010,10,19,01,27,7.00
2010,10,19,01,28,7.00
2010,10,19,01,29,7.00
2010,10,19,01,30,7.00
2010,10,19,01,31,7.00
2010,10,19,01,32,7.00
2010,10,19,01,33,7.00
2010,10,19,01,34,7.00
2010,10,19,01,35,7.00
2010,10,19,01,36,7.00
2010,10,19,01,37,6.90
2010,10,19,01,38,6.90
2010,10,19,01,39,6.90
2010,10,19,01,40,6.90
2010,10,19,01,41,6.90
2010,10,19,01,42,6.90
2010,10,19,01,43,6.90
2010,10,19,01,44,6.90
2010,10,19,01,45,6.90
2010,10,19,01,46,6.90
2010,10,19,01,47,6.90
2010,10,19,01,48,6.90
2010,10,19,01,49,7.00
2010,10,19,01,50,7.00
2010,10,19,01,51,7.00
2010,10,19,01,52,7.00
2010,10,19,01,53,7.10
2010,10,19,01,54,7.10
2010,10,19,01,55,7.10
2010,10,19,01,56,7.20
2010,10,19,01,57,7.20
2010,10,19,01,58,7.20
2010,10,19,01,59,7.30
2010,10,19,02,00,7.30
2010,10,19,02,01,7.30
2010,10,19,02,02,7.30
2010,10,19,02,03,7.30
2010,10,19,02,04,7.40
2010,10,19,02,05,7.40
2010,10,19,02,06,7.40
2010,10,19,02,07,7.40
2010,10,19,02,08,7.50
2010,10,19,02,09,7.50
2010,10,19,02,10,7.50
2010,10,19,02,11,7.50
2010,10,19,02,12,7.50
2010,10,19,02,13,7.50
2010,10,19,02,14,7.60
2010,10,19,02,15,7.60
2010,10,19,02,16,7.60
2010,10,19,02,17,7.60
2010,10,19,02,18,7.60
2010,10,19,02,19,7.60
2010,10,19,02,20,7.60
2010,10,19,02,21,7.60
2010,10,19,02,22,7.60
2010,10,19,02,23,7.60
2010,10,19,02,24,7.60
2010,10,19,02,25,7.60
2010,10,19,02,26,7.60
2010,10,19,02,27,7.60
2010,10,19,02,28,7.60
2010,10,19,02,29,7.60
2010,10,19,02,30,7.60
2010,10,19,02,31,7.70
2010,10,19,02,32,7.70
2010,10,19,02,33,7.70
2010,10,19,02,34,7.80
2010,10,19,02,35,7.80
2010,10,19,02,36,7.80
2010,10,19,02,37,7.80
2010,10,19,02,38,7.80
2010,10,19,02,39,7.80
2010,10,19,02,40,7.80
2010,10,19,02,41,7.80
2010,10,19,02,42,7.80
2010,10,19,02,43,7.80
2010,10,19,02,44,7.80
2010,10,19,02,45,7.80
2010,10,19,02,46,7.80
2010,10,19,02,47,7.80
2010,10,19,02,48,7.80
2010,10,19,02,49,7.80
2010,10,19,02,50,7.80
2010,10,19,02,51,7.80
2010,10,19,02,52,7.80
2010,10,19,02,53,7.80
2010,10,19,02,54,7.80
2010,10,19,02,55,7.80
2010,10,19,02,56,7.80
2010,10,19,02,57,7.80
2010,10,19,02,58,7.80
2010,10,19,02,59,7.80
2010,10,19,03,00,7.90
2010,10,19,03,01,7.90
2010,10,19,03,02,7.90
2010,10,19,03,03,7.90
2010,10,19,03,04,7.90
2010,10,19,03,05,7.90
2010,10,19,03,06,7.90
2010,10,19,03,07,7.90
2010,10,19,03,08,7.90
2010,10,19,03,09,8.00
2010,10,19,03,10,8.00
2010,10,19,03,11,8.00
2010,10,19,03,12,8.00
2010,10,19,03,13,8.00
2010,10,19,03,14,8.00
2010,10,19,03,15,8.00
2010,10,19,03,16,7.90
2010,10,19,03,17,7.90
2010,10,19,03,18,7.90
2010,10,19,03,19,7.90
2010,10,19,03,20,7.90
2010,10,19,03,21,7.90
2010,10,19,03,22,8.00
2010,10,19,03,23,8.00
2010,10,19,03,24,8.00
2010,10,19,03,25,8.00
2010,10,19,03,26,8.00
2010,10,19,03,27,8.00
2010,10,19,03,28,8.00
2010,10,19,03,29,8.00
2010,10,19,03,30,8.00
2010,10,19,03,31,8.00
2010,10,19,03,32,8.00
2010,10,19,03,33,8.00
2010,10,19,03,34,8.00
2010,10,19,03,35,8.00
2010,10,19,03,36,8.00
2010,10,19,03,37,8.00
2010,10,19,03,38,8.00
2010,10,19,03,39,7.90
2010,10,19,03,40,7.90
2010,10,19,03,41,7.90
2010,10,19,03,42,7.90
2010,10,19,03,43,7.90
2010,10,19,03,44,7.90
2010,10,19,03,45,7.90
2010,10,19,03,46,7.90
2010,10,19,03,47,7.90
2010,10,19,03,48,7.90
2010,10,19,03,49,7.90
2010,10,19,03,50,7.90
2010,10,19,03,51,7.90
2010,10,19,03,52,7.90
2010,10,19,03,53,7.90
2010,10,19,03,54,7.90
2010,10,19,03,55,7.90
2010,10,19,03,56,7.90
2010,10,19,03,57,7.90
2010,10,19,03,58,7.90
2010,10,19,03,59,7.90
2010,10,19,04,00,7.90
2010,10,19,04,01,7.90
2010,10,19,04,02,7.90
2010,10,19,04,03,7.90
2010,10,19,04,04,7.80
2010,10,19,04,05,7.80
2010,10,19,04,06,7.80
2010,10,19,04,07,7.80
2010,10,19,04,08,7.80
2010,10,19,04,09,7.80
2010,10,19,04,10,7.80
2010,10,19,04,11,7.80
2010,10,19,04,12,7.70
2010,10,19,04,13,7.70
2010,10,19,04,14,7.70
2010,10,19,04,15,7.70
2010,10,19,04,16,7.60
2010,10,19,04,17,7.60
2010,10,19,04,18,7.60
2010,10,19,04,19,7.70
2010,10,19,04,20,7.70
2010,10,19,04,21,7.70
2010,10,19,04,22,7.70
2010,10,19,04,23,7.70
2010,10,19,04,24,7.80
2010,10,19,04,25,7.80
2010,10,19,04,26,7.80
2010,10,19,04,27,7.80
2010,10,19,04,28,7.80
2010,10,19,04,29,7.80
2010,10,19,04,30,7.80
2010,10,19,04,31,7.90
2010,10,19,04,32,7.90
2010,10,19,04,33,8.00
2010,10,19,04,34,8.00
2010,10,19,04,35,8.00
2010,10,19,04,36,8.10
2010,10,19,04,37,8.10
2010,10,19,04,38,8.10
2010,10,19,04,39,8.10
2010,10,19,04,40,8.10
2010,10,19,04,41,8.10
2010,10,19,04,42,8.10
2010,10,19,04,43,8.10
2010,10,19,04,44,8.10
2010,10,19,04,45,8.10
2010,10,19,04,46,8.10
2010,10,19,04,47,8.10
2010,10,19,04,48,8.10
2010,10,19,04,49,8.10
2010,10,19,04,50,8.10
2010,10,19,04,51,8.10
2010,10,19,04,52,8.10
2010,10,19,04,53,8.00
2010,10,19,04,54,8.00
2010,10,19,04,55,8.00
2010,10,19,04,56,8.00
2010,10,19,04,57,8.00
2010,10,19,04,58,8.00
2010,10,19,04,59,8.00
2010,10,19,05,00,8.00
2010,10,19,05,01,8.00
2010,10,19,05,02,8.00
2010,10,19,05,03,8.00
2010,10,19,05,04,8.00
2010,10,19,05,05,8.00
2010,10,19,05,06,8.00
2010,10,19,05,07,8.00
2010,10,19,05,08,8.00
2010,10,19,05,09,8.00
2010,10,19,05,10,8.00
2010,10,19,05,11,8.00
2010,10,19,05,12,8.00
2010,10,19,05,13,7.90
2010,10,19,05,14,7.90
2010,10,19,05,15,7.90
2010,10,19,05,16,7.90
2010,10,19,05,17,7.90
2010,10,19,05,18,7.80
2010,10,19,05,19,7.80
2010,10,19,05,20,7.80
2010,10,19,05,21,7.80
2010,10,19,05,22,7.80
2010,10,19,05,23,7.80
2010,10,19,05,24,7.80
2010,10,19,05,25,7.80
2010,10,19,05,26,7.80
2010,10,19,05,27,7.80
2010,10,19,05,28,7.80
2010,10,19,05,29,7.80
2010,10,19,05,30,7.70
2010,10,19,05,31,7.70
2010,10,19,05,32,7.70
2010,10,19,05,33,7.70
2010,10,19,05,34,7.70
2010,10,19,05,35,7.70
2010,10,19,05,36,7.70
2010,10,19,05,37,7.70
2010,10,19,05,38,7.70
2010,10,19,05,39,7.60
2010,10,19,05,40,7.60
2010,10,19,05,41,7.60
2010,10,19,05,42,7.60
2010,10,19,05,43,7.60
2010,10,19,05,44,7.60
2010,10,19,05,45,7.60
2010,10,19,05,46,7.60
2010,10,19,05,47,7.60
2010,10,19,05,48,7.60
2010,10,19,05,49,7.60
2010,10,19,05,50,7.60
2010,10,19,05,51,7.60
2010,10,19,05,52,7.60
2010,10,19,05,53,7.60
2010,10,19,05,54,7.60
2010,10,19,05,55,7.60
2010,10,19,05,56,7.60
2010,10,19,05,57,7.50
2010,10,19,05,58,7.50
2010,10,19,05,59,7.50
2010,10,19,06,00,7.50
2010,10,19,06,01,7.50
2010,10,19,06,02,7.50
2010,10,19,06,03,7.50
2010,10,19,06,04,7.50
2010,10,19,06,05,7.50
2010,10,19,06,06,7.50
2010,10,19,06,07,7.50
2010,10,19,06,08,7.50
2010,10,19,06,09,7.50
2010,10,19,06,10,7.50
2010,10,19,06,11,7.50
2010,10,19,06,12,7.50
2010,10,19,06,13,7.50
2010,10,19,06,14,7.50
2010,10,19,06,15,7.50
2010,10,19,06,16,7.50
2010,10,19,06,17,7.50
2010,10,19,06,18,7.50
2010,10,19,06,19,7.50
2010,10,19,06,20,7.60
2010,10,19,06,21,7.60
2010,10,19,06,22,7.60
2010,10,19,06,23,7.70
2010,10,19,06,24,7.70
2010,10,19,06,25,7.70
2010,10,19,06,26,7.80
2010,10,19,06,27,7.80
2010,10,19,06,28,7.80
2010,10,19,06,29,7.80
2010,10,19,06,30,7.80
2010,10,19,06,31,7.80
2010,10,19,06,32,7.80
2010,10,19,06,33,7.80
2010,10,19,06,34,7.80
2010,10,19,06,35,7.80
2010,10,19,06,36,7.80
2010,10,19,06,37,7.80
2010,10,19,06,38,7.80
2010,10,19,06,39,7.80
2010,10,19,06,40,7.80
2010,10,19,06,41,7.80
2010,10,19,06,42,7.80
2010,10,19,06,43,7.80
2010,10,19,06,44,7.80
2010,10,19,06,45,7.80
2010,10,19,06,46,7.80
2010,10,19,06,47,7.80
2010,10,19,06,48,7.80
2010,10,19,06,49,7.80
2010,10,19,06,50,7.80
2010,10,19,06,51,7.80
2010,10,19,06,52,7.80
2010,10,19,06,53,7.70
2010,10,19,06,54,7.70
2010,10,19,06,55,7.70
2010,10,19,06,56,7.70
2010,10,19,06,57,7.70
2010,10,19,06,58,7.70
2010,10,19,06,59,7.70
2010,10,19,07,00,7.70
2010,10,19,07,01,7.70
2010,10,19,07,02,7.70
2010,10,19,07,03,7.70
2010,10,19,07,04,7.70
2010,10,19,07,05,7.70
2010,10,19,07,06,7.60
2010,10,19,07,07,7.60
2010,10,19,07,08,7.60
2010,10,19,07,09,7.60
2010,10,19,07,10,7.60
2010,10,19,07,11,7.60
2010,10,19,07,12,7.60
2010,10,19,07,13,7.60
2010,10,19,07,14,7.60
2010,10,19,07,15,7.60
2010,10,19,07,16,7.60
2010,10,19,07,17,7.60
2010,10,19,07,18,7.60
2010,10,19,07,19,7.70
2010,10,19,07,20,7.70
2010,10,19,07,21,7.70
2010,10,19,07,22,7.70
2010,10,19,07,23,7.70
2010,10,19,07,24,7.70
2010,10,19,07,25,7.70
2010,10,19,07,26,7.70
2010,10,19,07,27,7.70
2010,10,19,07,28,7.70
2010,10,19,07,29,7.60
2010,10,19,07,30,7.60
2010,10,19,07,31,7.60
2010,10,19,07,32,7.60
2010,10,19,07,33,7.60
2010,10,19,07,34,7.60
2010,10,19,07,35,7.60
2010,10,19,07,36,7.50
2010,10,19,07,37,7.50
2010,10,19,07,38,7.50
2010,10,19,07,39,7.50
2010,10,19,07,40,7.50
2010,10,19,07,41,7.50
2010,10,19,07,42,7.50
2010,10,19,07,43,7.50
2010,10,19,07,44,7.50
2010,10,19,07,45,7.50
2010,10,19,07,46,7.40
2010,10,19,07,47,7.40
2010,10,19,07,48,7.40
2010,10,19,07,49,7.40
2010,10,19,07,50,7.40
2010,10,19,07,51,7.40
2010,10,19,07,52,7.40
2010,10,19,07,53,7.40
2010,10,19,07,54,7.40
2010,10,19,07,55,7.40
2010,10,19,07,56,7.40
2010,10,19,07,57,7.40
2010,10,19,07,58,7.30
2010,10,19,07,59,7.30
2010,10,19,08,00,7.30
2010,10,19,08,01,7.30
2010,10,19,08,02,7.30
2010,10,19,08,03,7.30
2010,10,19,08,04,7.30
2010,10,19,08,05,7.30
2010,10,19,08,06,7.30
2010,10,19,08,07,7.30
2010,10,19,08,08,7.30
2010,10,19,08,09,7.30
2010,10,19,08,10,7.30
2010,10,19,08,11,7.30
2010,10,19,08,12,7.30
2010,10,19,08,13,7.40
2010,10,19,08,14,7.40
2010,10,19,08,15,7.40
2010,10,19,08,16,7.40
2010,10,19,08,17,7.40
2010,10,19,08,18,7.50
2010,10,19,08,19,7.50
2010,10,19,08,20,7.50
2010,10,19,08,21,7.50
2010,10,19,08,22,7.50
2010,10,19,08,23,7.50
2010,10,19,08,24,7.50
2010,10,19,08,25,7.50
2010,10,19,08,26,7.60
2010,10,19,08,27,7.60
2010,10,19,08,28,7.60
2010,10,19,08,29,7.60
2010,10,19,08,30,7.70
2010,10,19,08,31,7.70
2010,10,19,08,32,7.80
2010,10,19,08,33,7.80
2010,10,19,08,34,7.90
2010,10,19,08,35,7.90
2010,10,19,08,36,8.00
2010,10,19,08,37,8.10
2010,10,19,08,38,8.20
2010,10,19,08,39,8.20
2010,10,19,08,40,8.30
2010,10,19,08,41,8.40
2010,10,19,08,42,8.50
2010,10,19,08,43,8.60
2010,10,19,08,44,8.70
2010,10,19,08,45,8.80
2010,10,19,08,46,8.90
2010,10,19,08,47,9.00
2010,10,19,08,48,9.20
2010,10,19,08,49,9.30
2010,10,19,08,50,9.40
2010,10,19,08,51,9.50
2010,10,19,08,52,9.70
2010,10,19,08,53,9.80
2010,10,19,08,54,9.90
2010,10,19,08,55,10.00
2010,10,19,08,56,10.10
2010,10,19,08,57,10.20
2010,10,19,08,58,10.30
2010,10,19,08,59,10.30
2010,10,19,09,00,10.40
2010,10,19,09,01,10.40
2010,10,19,09,02,10.40
2010,10,19,09,03,10.40
2010,10,19,09,04,10.40
2010,10,19,09,05,10.40
2010,10,19,09,06,10.40
2010,10,19,09,07,10.50
2010,10,19,09,08,10.60
2010,10,19,09,09,10.60
2010,10,19,09,10,10.60
2010,10,19,09,11,10.60
2010,10,19,09,12,10.60
2010,10,19,09,13,10.60
2010,10,19,09,14,10.60
2010,10,19,09,15,10.60
2010,10,19,09,16,10.70
2010,10,19,09,17,10.70
2010,10,19,09,18,10.80
2010,10,19,09,19,10.80
2010,10,19,09,20,10.90
2010,10,19,09,21,10.90
2010,10,19,09,22,10.90
2010,10,19,09,23,11.00
2010,10,19,09,24,11.10
2010,10,19,09,25,11.10
2010,10,19,09,26,11.00
2010,10,19,09,27,10.90
2010,10,19,09,28,10.80
2010,10,19,09,29,10.60
2010,10,19,09,30,10.50
2010,10,19,09,31,10.40
2010,10,19,09,32,10.30
2010,10,19,09,33,10.30
2010,10,19,09,34,10.30
2010,10,19,09,35,10.30
2010,10,19,09,36,10.30
2010,10,19,09,37,10.30
2010,10,19,09,38,10.30
2010,10,19,09,39,10.30
2010,10,19,09,40,10.40
2010,10,19,09,41,10.40
2010,10,19,09,42,10.40
2010,10,19,09,43,10.40
2010,10,19,09,44,10.50
2010,10,19,09,45,10.60
2010,10,19,09,46,10.60
2010,10,19,09,47,10.70
2010,10,19,09,48,10.90
2010,10,19,09,49,11.00
2010,10,19,09,50,11.10
2010,10,19,09,51,11.20
2010,10,19,09,52,11.30
2010,10,19,09,53,11.40
2010,10,19,09,54,11.60
2010,10,19,09,55,11.60
2010,10,19,09,56,11.60
2010,10,19,09,57,11.60
2010,10,19,09,58,11.60
2010,10,19,09,59,11.60
2010,10,19,10,00,11.60
2010,10,19,10,01,11.70
2010,10,19,10,02,11.70
2010,10,19,10,03,11.80
2010,10,19,10,04,11.80
2010,10,19,10,05,11.80
2010,10,19,10,06,11.80
2010,10,19,10,07,11.70
2010,10,19,10,08,11.60
2010,10,19,10,09,11.60
2010,10,19,10,10,11.60
2010,10,19,10,11,11.70
2010,10,19,10,12,11.70
2010,10,19,10,13,11.80
2010,10,19,10,14,11.80
2010,10,19,10,15,11.80
2010,10,19,10,16,11.90
2010,10,19,10,17,12.00
2010,10,19,10,18,12.10
2010,10,19,10,19,12.10
2010,10,19,10,20,12.10
2010,10,19,10,21,12.20
2010,10,19,10,22,12.20
2010,10,19,10,23,12.20
2010,10,19,10,24,12.20
2010,10,19,10,25,12.20
2010,10,19,10,26,12.20
2010,10,19,10,27,12.20
2010,10,19,10,28,12.20
2010,10,19,10,29,12.20
2010,10,19,10,30,12.30
2010,10,19,10,31,12.30
2010,10,19,10,32,12.30
2010,10,19,10,33,12.40
2010,10,19,10,34,12.50
2010,10,19,10,35,12.60
2010,10,19,10,36,12.70
2010,10,19,10,37,12.80
2010,10,19,10,38,12.80
2010,10,19,10,39,12.80
2010,10,19,10,40,12.80
2010,10,19,10,41,12.80
2010,10,19,10,42,12.80
2010,10,19,10,43,12.80
2010,10,19,10,44,12.80
2010,10,19,10,45,12.80
2010,10,19,10,46,12.70
2010,10,19,10,47,12.60
2010,10,19,10,48,12.50
2010,10,19,10,49,12.50
2010,10,19,10,50,12.50
2010,10,19,10,51,12.50
2010,10,19,10,52,12.50
2010,10,19,10,53,12.50
2010,10,19,10,54,12.40
2010,10,19,10,55,12.40
2010,10,19,10,56,12.40
2010,10,19,10,57,12.50
2010,10,19,10,58,12.50
2010,10,19,10,59,12.50
2010,10,19,11,00,12.50
2010,10,19,11,01,12.60
2010,10,19,11,02,12.50
2010,10,19,11,03,12.50
2010,10,19,11,04,12.50
2010,10,19,11,05,12.50
2010,10,19,11,06,12.40
2010,10,19,11,07,12.40
2010,10,19,11,08,12.30
2010,10,19,11,09,12.30
2010,10,19,11,10,12.20
2010,10,19,11,11,12.10
2010,10,19,11,12,12.00
2010,10,19,11,13,11.90
2010,10,19,11,14,11.90
2010,10,19,11,15,11.90
2010,10,19,11,16,11.90
2010,10,19,11,17,11.90
2010,10,19,11,18,11.90
2010,10,19,11,19,11.90
2010,10,19,11,20,12.00
2010,10,19,11,21,12.00
2010,10,19,11,22,12.00
2010,10,19,11,23,11.90
2010,10,19,11,24,11.80
2010,10,19,11,25,11.90
2010,10,19,11,26,11.90
2010,10,19,11,27,11.90
2010,10,19,11,28,11.90
2010,10,19,11,29,11.90
2010,10,19,11,30,11.90
2010,10,19,11,31,11.90
2010,10,19,11,32,11.90
2010,10,19,11,33,11.90
2010,10,19,11,34,11.90
2010,10,19,11,35,12.00
2010,10,19,11,36,12.00
2010,10,19,11,37,12.10
2010,10,19,11,38,12.10
2010,10,19,11,39,12.10
2010,10,19,11,40,12.00
2010,10,19,11,41,11.90
2010,10,19,11,42,11.80
2010,10,19,11,43,11.80
2010,10,19,11,44,11.70
2010,10,19,11,45,11.70
2010,10,19,11,46,11.70
2010,10,19,11,47,11.80
2010,10,19,11,48,11.80
2010,10,19,11,49,11.80
2010,10,19,11,50,11.80
2010,10,19,11,51,11.80
2010,10,19,11,52,11.80
2010,10,19,11,53,11.80
2010,10,19,11,54,11.90
2010,10,19,11,55,11.90
2010,10,19,11,56,11.80
2010,10,19,11,57,11.80
2010,10,19,11,58,11.80
2010,10,19,11,59,11.80
2010,10,19,12,00,11.80
2010,10,19,12,01,11.80
2010,10,19,12,02,11.80
2010,10,19,12,03,11.90
2010,10,19,12,04,12.00
2010,10,19,12,05,12.00
2010,10,19,12,06,12.10
2010,10,19,12,07,12.20
2010,10,19,12,08,12.20
2010,10,19,12,09,12.30
2010,10,19,12,10,12.30
2010,10,19,12,11,12.30
2010,10,19,12,12,12.40
2010,10,19,12,13,12.50
2010,10,19,12,14,12.50
2010,10,19,12,15,12.40
2010,10,19,12,16,12.40
2010,10,19,12,17,12.30
2010,10,19,12,18,12.30
2010,10,19,12,19,12.30
2010,10,19,12,20,12.40
2010,10,19,12,21,12.50
2010,10,19,12,22,12.60
2010,10,19,12,23,12.60
2010,10,19,12,24,12.70
2010,10,19,12,25,12.80
2010,10,19,12,26,12.80
2010,10,19,12,27,12.80
2010,10,19,12,28,12.80
2010,10,19,12,29,12.90
2010,10,19,12,30,13.00
2010,10,19,12,31,13.00
2010,10,19,12,32,13.10
2010,10,19,12,33,13.10
2010,10,19,12,34,13.10
2010,10,19,12,35,13.10
2010,10,19,12,36,13.10
2010,10,19,12,37,13.00
2010,10,19,12,38,12.90
2010,10,19,12,39,12.90
2010,10,19,12,40,12.80
2010,10,19,12,41,12.80
2010,10,19,12,42,12.80
2010,10,19,12,43,12.80
2010,10,19,12,44,12.80
2010,10,19,12,45,12.80
2010,10,19,12,46,12.90
2010,10,19,12,47,12.90
2010,10,19,12,48,12.90
2010,10,19,12,49,12.90
2010,10,19,12,50,12.90
2010,10,19,12,51,12.90
2010,10,19,12,52,12.90
2010,10,19,12,53,12.90
2010,10,19,12,54,12.90
2010,10,19,12,55,13.00
2010,10,19,12,56,13.00
2010,10,19,12,57,13.10
2010,10,19,12,58,13.10
2010,10,19,12,59,13.10
2010,10,19,13,00,13.10
2010,10,19,13,01,13.00
2010,10,19,13,02,12.90
2010,10,19,13,03,13.00
2010,10,19,13,04,13.00
2010,10,19,13,05,13.10
2010,10,19,13,06,13.10
2010,10,19,13,07,13.10
2010,10,19,13,08,13.10
2010,10,19,13,09,13.10
2010,10,19,13,10,13.10
2010,10,19,13,11,13.20
2010,10,19,13,12,13.20
2010,10,19,13,13,13.20
2010,10,19,13,14,13.20
2010,10,19,13,15,13.20
2010,10,19,13,16,13.20
2010,10,19,13,17,13.30
2010,10,19,13,18,13.30
2010,10,19,13,19,13.40
2010,10,19,13,20,13.40
2010,10,19,13,21,13.40
2010,10,19,13,22,13.40
2010,10,19,13,23,13.40
2010,10,19,13,24,13.40
2010,10,19,13,25,13.40
2010,10,19,13,26,13.40
2010,10,19,13,27,13.30
2010,10,19,13,28,13.30
2010,10,19,13,29,13.20
2010,10,19,13,30,13.20
2010,10,19,13,31,13.20
2010,10,19,13,32,13.20
2010,10,19,13,33,13.10
2010,10,19,13,34,13.10
2010,10,19,13,35,13.10
2010,10,19,13,36,13.10
2010,10,19,13,37,13.10
2010,10,19,13,38,13.10
2010,10,19,13,39,13.10
2010,10,19,13,40,13.20
2010,10,19,13,41,13.20
2010,10,19,13,42,13.20
2010,10,19,13,43,13.20
2010,10,19,13,44,13.30
2010,10,19,13,45,13.30
2010,10,19,13,46,13.50
2010,10,19,13,47,13.60
2010,10,19,13,48,13.70
2010,10,19,13,49,13.70
2010,10,19,13,50,13.70
2010,10,19,13,51,13.70
2010,10,19,13,52,13.70
2010,10,19,13,53,13.70
2010,10,19,13,54,13.70
2010,10,19,13,55,13.70
2010,10,19,13,56,13.70
2010,10,19,13,57,13.70
2010,10,19,13,58,13.70
2010,10,19,13,59,13.70
2010,10,19,14,00,13.70
2010,10,19,14,01,13.70
2010,10,19,14,02,13.70
2010,10,19,14,03,13.70
2010,10,19,14,04,13.70
2010,10,19,14,05,13.70
2010,10,19,14,06,13.70
2010,10,19,14,07,13.70
2010,10,19,14,08,13.70
2010,10,19,14,09,13.70
2010,10,19,14,10,13.70
2010,10,19,14,11,13.70
2010,10,19,14,12,13.70
2010,10,19,14,13,13.70
2010,10,19,14,14,13.70
2010,10,19,14,15,13.70
2010,10,19,14,16,13.70
2010,10,19,14,17,13.80
2010,10,19,14,18,13.80
2010,10,19,14,19,13.80
2010,10,19,14,20,13.80
2010,10,19,14,21,13.90
2010,10,19,14,22,13.90
2010,10,19,14,23,13.90
2010,10,19,14,24,14.00
2010,10,19,14,25,14.00
2010,10,19,14,26,14.00
2010,10,19,14,27,14.00
2010,10,19,14,28,14.00
2010,10,19,14,29,14.00
2010,10,19,14,30,14.00
2010,10,19,14,31,14.00
2010,10,19,14,32,14.00
2010,10,19,14,33,14.00
2010,10,19,14,34,13.90
2010,10,19,14,35,13.90
2010,10,19,14,36,13.90
2010,10,19,14,37,13.90
2010,10,19,14,38,13.90
2010,10,19,14,39,13.80
2010,10,19,14,40,13.70
2010,10,19,14,41,13.70
2010,10,19,14,42,13.80
2010,10,19,14,43,13.70
2010,10,19,14,44,13.70
2010,10,19,14,45,13.70
2010,10,19,14,46,13.70
2010,10,19,14,47,13.70
2010,10,19,14,48,13.70
2010,10,19,14,49,13.70
2010,10,19,14,50,13.70
2010,10,19,14,51,13.70
2010,10,19,14,52,13.70
2010,10,19,14,53,13.70
2010,10,19,14,54,13.80
2010,10,19,14,55,13.80
2010,10,19,14,56,13.70
2010,10,19,14,57,13.70
2010,10,19,14,58,13.70
2010,10,19,14,59,13.70
2010,10,19,15,00,13.70
2010,10,19,15,01,13.70
2010,10,19,15,02,13.70
2010,10,19,15,03,13.80
2010,10,19,15,04,13.80
2010,10,19,15,05,13.80
2010,10,19,15,06,13.70
2010,10,19,15,07,13.80
2010,10,19,15,08,13.80
2010,10,19,15,09,13.80
2010,10,19,15,10,13.80
2010,10,19,15,11,13.80
2010,10,19,15,12,13.90
2010,10,19,15,13,13.90
2010,10,19,15,14,13.90
2010,10,19,15,15,13.90
2010,10,19,15,16,14.00
2010,10,19,15,17,14.00
2010,10,19,15,18,14.00
2010,10,19,15,19,14.00
2010,10,19,15,20,14.00
2010,10,19,15,21,14.10
2010,10,19,15,22,14.20
2010,10,19,15,23,14.20
2010,10,19,15,24,14.20
2010,10,19,15,25,14.20
2010,10,19,15,26,14.20
2010,10,19,15,27,14.20
2010,10,19,15,28,14.20
2010,10,19,15,29,14.20
2010,10,19,15,30,14.20
2010,10,19,15,31,14.20
2010,10,19,15,32,14.20
2010,10,19,15,33,14.30
2010,10,19,15,34,14.30
2010,10,19,15,35,14.30
2010,10,19,15,36,14.30
2010,10,19,15,37,14.20
2010,10,19,15,38,14.20
2010,10,19,15,39,14.30
2010,10,19,15,40,14.30
2010,10,19,15,41,14.30
2010,10,19,15,42,14.30
2010,10,19,15,43,14.30
2010,10,19,15,44,14.30
2010,10,19,15,45,14.40
2010,10,19,15,46,14.30
2010,10,19,15,47,14.30
2010,10,19,15,48,14.30
2010,10,19,15,49,14.20
2010,10,19,15,50,14.20
2010,10,19,15,51,14.10
2010,10,19,15,52,14.00
2010,10,19,15,53,14.00
2010,10,19,15,54,13.90
2010,10,19,15,55,13.90
2010,10,19,15,56,13.90
2010,10,19,15,57,13.90
2010,10,19,15,58,13.90
2010,10,19,15,59,13.90
2010,10,19,16,00,13.90
2010,10,19,16,01,13.90
2010,10,19,16,02,14.00
2010,10,19,16,03,14.00
2010,10,19,16,04,14.00
2010,10,19,16,05,14.00
2010,10,19,16,06,14.00
2010,10,19,16,07,14.00
2010,10,19,16,08,14.00
2010,10,19,16,09,13.90
2010,10,19,16,10,13.80
2010,10,19,16,11,13.80
2010,10,19,16,12,13.70
2010,10,19,16,13,13.70
2010,10,19,16,14,13.70
2010,10,19,16,15,13.70
2010,10,19,16,16,13.70
2010,10,19,16,17,13.70
2010,10,19,16,18,13.70
2010,10,19,16,19,13.70
2010,10,19,16,20,13.80
2010,10,19,16,21,13.90
2010,10,19,16,22,14.00
2010,10,19,16,23,14.10
2010,10,19,16,24,14.10
2010,10,19,16,25,14.10
2010,10,19,16,26,14.00
2010,10,19,16,27,14.00
2010,10,19,16,28,13.90
2010,10,19,16,29,13.90
2010,10,19,16,30,13.90
2010,10,19,16,31,13.80
2010,10,19,16,32,13.80
2010,10,19,16,33,13.80
2010,10,19,16,34,13.70
2010,10,19,16,35,13.70
2010,10,19,16,36,13.70
2010,10,19,16,37,13.70
2010,10,19,16,38,13.70
2010,10,19,16,39,13.70
2010,10,19,16,40,13.70
2010,10,19,16,41,13.70
2010,10,19,16,42,13.80
2010,10,19,16,43,13.80
2010,10,19,16,44,13.90
2010,10,19,16,45,14.00
2010,10,19,16,46,14.10
2010,10,19,16,47,14.20
2010,10,19,16,48,14.20
2010,10,19,16,49,14.20
2010,10,19,16,50,14.20
2010,10,19,16,51,14.20
2010,10,19,16,52,14.10
2010,10,19,16,53,14.00
2010,10,19,16,54,13.90
2010,10,19,16,55,13.90
2010,10,19,16,56,13.70
2010,10,19,16,57,13.70
2010,10,19,16,58,13.60
2010,10,19,16,59,13.50
2010,10,19,17,00,13.50
2010,10,19,17,01,13.40
2010,10,19,17,02,13.30
2010,10,19,17,03,13.20
2010,10,19,17,04,13.20
2010,10,19,17,05,13.10
2010,10,19,17,06,13.00
2010,10,19,17,07,13.00
2010,10,19,17,08,12.90
2010,10,19,17,09,12.80
2010,10,19,17,10,12.80
2010,10,19,17,11,12.70
2010,10,19,17,12,12.70
2010,10,19,17,13,12.60
2010,10,19,17,14,12.50
2010,10,19,17,15,12.50
2010,10,19,17,16,12.40
2010,10,19,17,17,12.40
2010,10,19,17,18,12.30
2010,10,19,17,19,12.30
2010,10,19,17,20,12.30
2010,10,19,17,21,12.30
2010,10,19,17,22,12.20
2010,10,19,17,23,12.10
2010,10,19,17,24,12.10
2010,10,19,17,25,12.00
2010,10,19,17,26,12.00
2010,10,19,17,27,12.00
2010,10,19,17,28,12.00
2010,10,19,17,29,11.90
2010,10,19,17,30,11.90
2010,10,19,17,31,11.90
2010,10,19,17,32,11.90
2010,10,19,17,33,11.90
2010,10,19,17,34,11.90
2010,10,19,17,35,11.90
2010,10,19,17,36,11.90
2010,10,19,17,37,11.90
2010,10,19,17,38,11.90
2010,10,19,17,39,11.80
2010,10,19,17,40,11.80
2010,10,19,17,41,11.80
2010,10,19,17,42,11.80